Weather History for KRTN - February, 2014

Change the Weather History Date:

Monday, February 24, 2014

  Actual Average (KTAD) Record (KTAD)
Temperature  
Mean Temperature 40 °F 37 °F  
Max Temperature 64 °F 52 °F 77 °F (1986)
Min Temperature 17 °F 22 °F -7 °F (1960)
Degree Days  
Heating Degree Days 24 28  
Month to date heating degree days 732  
Since 1 July heating degree days 4014  
Cooling Degree Days 0 0  
Month to date cooling degree days 0  
Year to date cooling degree days 0  
Moisture  
Dew Point 9 °F    
Average Humidity 39    
Maximum Humidity 81    
Minimum Humidity 7    
Precipitation  
Precipitation 0.00 in 0.02 in 0.37 in (1991)
Month to date precipitation 0.40  
Year to date precipitation 0.80  
Sea Level Pressure  
Sea Level Pressure 29.97 in    
Wind  
Wind Speed 7 mph (North)    
Max Wind Speed 21 mph    
Max Gust Speed 28 mph    
Visibility 10 miles    
Events      
T = Trace of Precipitation, MM = Missing Value Source: NWS Daily Summary

Daily Weather History Graph

Daily Weather History Graph

Search for Another Location

Airport or City:

Trip Planner

Search our weather history database for the weather conditions in past years. The results will help you decide how hot, cold, wet, or windy it might be!

Date:

Astronomy

Feb. 24, 2014 Rise Set
Actual Time 6:35 AM MST 5:47 PM MST
Civil Twilight 6:09 AM MST 6:13 PM MST
Nautical Twilight 5:39 AM MST 6:43 PM MST
Astronomical Twilight 5:09 AM MST 7:13 PM MST
Moon 2:31 AM MST (2/24) 12:55 PM MST (2/24)
Length of Visible Light 12h 04m
Length of Day
11h 12m
Waning Crescent, 27% of the Moon is Illuminated
Feb 24
Waning Crescent
Mar 1
New
Mar 8
First Quarter
Mar 16
Full
Mar 23
Last Quarter

Hourly Weather History & Observations

Time (MST) Temp. Windchill Dew Point Humidity Pressure Visibility Wind Dir Wind Speed Gust Speed Precip Events Conditions
12:53 AM 25.0 °F 20.7 °F 17.1 °F 72% 30.00 in 10.0 mi Variable 3.5 mph - N/A   Clear
1:53 AM 21.9 °F 14.5 °F 15.1 °F 75% 29.98 in 10.0 mi NNE 5.8 mph - N/A   Clear
2:53 AM 19.9 °F 12.1 °F 14.0 °F 78% 29.98 in 10.0 mi North 5.8 mph - N/A   Clear
3:53 AM 21.0 °F 13.4 °F 14.0 °F 74% 29.99 in 10.0 mi NE 5.8 mph - N/A   Clear
4:53 AM 19.0 °F 10.0 °F 12.9 °F 77% 30.00 in 10.0 mi ENE 6.9 mph - N/A   Clear
5:53 AM 17.1 °F 7.6 °F 12.0 °F 81% 30.05 in 10.0 mi ENE 6.9 mph - N/A   Clear
6:53 AM 21.9 °F 15.7 °F 12.9 °F 68% 30.06 in 10.0 mi NE 4.6 mph - N/A   Clear
7:53 AM 23.0 °F 14.7 °F 14.0 °F 68% 30.08 in 10.0 mi ENE 6.9 mph - N/A   Clear
8:53 AM 34.0 °F 28.8 °F 16.0 °F 48% 30.05 in 10.0 mi NE 5.8 mph - N/A   Clear
9:53 AM 45.0 °F - 15.1 °F 30% 29.98 in 10.0 mi Calm Calm - N/A   Clear
10:53 AM 52.0 °F - 12.0 °F 20% 29.96 in 10.0 mi Calm Calm - N/A   Clear
11:53 AM 57.9 °F - 9.0 °F 14% 29.91 in 10.0 mi Variable 3.5 mph - N/A   Clear
12:53 PM 57.9 °F - 3.9 °F 11% 29.91 in 10.0 mi SW 5.8 mph - N/A   Clear
1:53 PM 64.0 °F - -2.0 °F 7% 29.88 in 10.0 mi NNW 11.5 mph 18.4 mph N/A   Clear
2:53 PM 62.1 °F - -2.9 °F 7% 29.88 in 10.0 mi WNW 8.1 mph 21.9 mph N/A   Clear
3:53 PM 64.0 °F - -2.0 °F 7% 29.86 in 10.0 mi WNW 19.6 mph 24.2 mph N/A   Clear
4:53 PM 63.0 °F - -2.0 °F 7% 29.89 in 10.0 mi NW 10.4 mph - N/A   Clear
5:53 PM 54.0 °F - -0.9 °F 11% 29.95 in 10.0 mi WNW 9.2 mph - N/A   Clear
6:53 PM 53.1 °F - -0.0 °F 11% 29.96 in 10.0 mi NW 12.7 mph - N/A   Clear
7:53 PM 54.0 °F - 1.0 °F 12% 29.96 in 10.0 mi WNW 17.3 mph - N/A   Clear
8:53 PM 46.9 °F - 1.9 °F 16% 29.98 in 10.0 mi Variable 5.8 mph - N/A   Clear
9:53 PM 42.1 °F 34.9 °F 6.1 °F 23% 29.99 in 10.0 mi ENE 13.8 mph - N/A   Clear
10:53 PM 36.0 °F 26.0 °F 18.0 °F 48% 30.00 in 10.0 mi ENE 17.3 mph - N/A   Clear
11:48 PM 33.8 °F 22.8 °F 17.6 °F 52% 30.08 in 10.0 mi NNW 18.4 mph 26.5 mph N/A   Clear
11:53 PM 33.1 °F 21.2 °F 17.1 °F 52% 29.97 in 10.0 mi NNW 20.7 mph 27.6 mph N/A   Clear